| time (UTC) | temp F | wind direction | speed MPH | gust MPH | rain 1hr in | rain 24hr in | rain mn in | humidity % | barometer mb |
| 20260901024016 | 77 | 0.0 | 0.0 | 0.00 | 0.74 | 0.74 | 76 | 1013.7 | |
| 20260901023018 | 77 | 0.0 | 0.0 | 0.00 | 0.74 | 0.74 | 75 | 1013.1 | |
| 20260901022018 | 78 | 0.0 | 0.0 | 0.00 | 0.74 | 0.74 | 72 | 1012.9 | |
| 20260901021018 | 78 | 0.0 | 0.0 | 0.00 | 0.74 | 0.74 | 70 | 1012.6 | |
| 20260901020019 | 79 | 0.0 | 0.0 | 0.00 | 0.74 | 0.74 | 68 | 1012.5 | |
| 20260901015038 | 80 | 0.0 | 0.0 | 0.00 | 0.74 | 0.74 | 66 | 1012.5 | |
| 20260901014016 | 80 | 158 | 1.0 | 3.0 | 0.00 | 0.74 | 0.74 | 63 | 1012.6 |
| 20260901013016 | 81 | 158 | 1.0 | 5.0 | 0.00 | 0.74 | 0.74 | 60 | 1012.6 |
| 20260901012018 | 83 | 158 | 1.0 | 5.0 | 0.00 | 0.74 | 0.74 | 57 | 1012.7 |
| 20260901011017 | 83 | 158 | 3.0 | 5.0 | 0.00 | 0.74 | 0.74 | 57 | 1012.8 |
| 20260901010016 | 83 | 158 | 1.0 | 5.0 | 0.00 | 0.74 | 0.74 | 57 | 1012.9 |
| 20260901005016 | 84 | 203 | 2.0 | 5.0 | 0.00 | 0.74 | 0.74 | 56 | 1012.9 |
| 20260901004017 | 84 | 225 | 2.0 | 4.0 | 0.00 | 0.74 | 0.74 | 53 | 1012.8 |
| 20260901003019 | 84 | 0.0 | 3.0 | 0.00 | 0.74 | 0.74 | 54 | 1012.8 | |
| 20260901002018 | 84 | 248 | 1.0 | 4.0 | 0.00 | 0.74 | 0.74 | 55 | 1013.0 |
| 20260901001016 | 84 | 248 | 2.0 | 4.0 | 0.00 | 0.74 | 0.74 | 55 | 1012.9 |
| 20260901000017 | 84 | 0.0 | 0.0 | 0.00 | 0.74 | 0.74 | 55 | 1012.8 | |
| 20260831235016 | 83 | 0.0 | 0.0 | 0.00 | 0.74 | 0.74 | 55 | 1013.0 | |
| 20260831234019 | 83 | 135 | 1.0 | 4.0 | 0.00 | 0.74 | 0.74 | 56 | 1012.7 |
| 20260831233016 | 83 | 68 | 5.0 | 7.0 | 0.00 | 0.74 | 0.74 | 54 | 1012.6 |
| 20260831232017 | 83 | 113 | 4.0 | 10.0 | 0.00 | 0.74 | 0.74 | 57 | 1012.7 |
| 20260831231017 | 83 | 90 | 4.0 | 8.0 | 0.00 | 0.74 | 0.74 | 58 | 1012.8 |
| 20260831230017 | 82 | 68 | 6.0 | 10.0 | 0.00 | 0.74 | 0.74 | 62 | 1013.1 |
| 20260831225018 | 82 | 45 | 7.0 | 13.0 | 0.00 | 0.74 | 0.74 | 62 | 1013.1 |
| 20260831224017 | 81 | 45 | 7.0 | 11.0 | 0.00 | 0.74 | 0.74 | 64 | 1013.4 |
| 20260831223017 | 80 | 68 | 8.0 | 13.0 | 0.00 | 0.74 | 0.74 | 66 | 1013.6 |
| 20260831222017 | 80 | 68 | 9.0 | 14.0 | 0.00 | 0.74 | 0.74 | 70 | 1014.0 |
| 20260831221036 | 78 | 68 | 7.0 | 13.0 | 0.00 | 0.74 | 0.74 | 78 | 1014.4 |
| 20260831220016 | 75 | 45 | 8.0 | 14.0 | 0.00 | 0.74 | 0.74 | 93 | 1014.5 |
| 20260831215018 | 73 | 45 | 8.0 | 14.0 | 0.00 | 0.74 | 0.74 | 93 | 1014.6 |
| 20260831214019 | 73 | 68 | 5.0 | 11.0 | 0.00 | 0.74 | 0.74 | 93 | 1014.9 |
| 20260831213018 | 72 | 68 | 4.0 | 7.0 | 0.00 | 0.74 | 0.74 | 94 | 1014.9 |
| 20260831212016 | 72 | 45 | 1.0 | 3.0 | 0.00 | 0.74 | 0.74 | 94 | 1015.2 |
| 20260831211036 | 71 | 0.0 | 1.0 | 0.00 | 0.74 | 0.74 | 94 | 1015.3 | |
| 20260831210016 | 70 | 0.0 | 1.0 | 0.00 | 0.74 | 0.74 | 94 | 1015.5 | |
| 20260831205018 | 70 | 113 | 1.0 | 3.0 | 0.00 | 0.74 | 0.74 | 94 | 1015.7 |
| 20260831204018 | 70 | 0.0 | 1.0 | 0.00 | 0.74 | 0.74 | 94 | 1016.0 | |
| 20260831203015 | 70 | 113 | 2.0 | 6.0 | 0.00 | 0.74 | 0.74 | 95 | 1016.0 |
| 20260831202037 | 70 | 113 | 3.0 | 7.0 | 0.00 | 0.74 | 0.74 | 95 | 1016.0 |
| 20260831201018 | 70 | 158 | 1.0 | 3.0 | 0.02 | 0.74 | 0.74 | 95 | 1016.1 |
| 20260831200019 | 69 | 135 | 1.0 | 3.0 | 0.04 | 0.74 | 0.74 | 95 | 1016.1 |
| 20260831195016 | 68 | 135 | 2.0 | 7.0 | 0.06 | 0.74 | 0.74 | 95 | 1016.3 |
| 20260831194019 | 68 | 135 | 4.0 | 6.0 | 0.09 | 0.74 | 0.74 | 95 | 1016.5 |
| 20260831193016 | 67 | 135 | 2.0 | 4.0 | 0.14 | 0.74 | 0.74 | 95 | 1016.7 |
| 20260831192016 | 67 | 225 | 3.0 | 11.0 | 0.19 | 0.74 | 0.74 | 95 | 1016.3 |
| 20260831191015 | 67 | 68 | 8.0 | 12.0 | 0.22 | 0.72 | 0.72 | 95 | 1015.4 |
| 20260831190018 | 67 | 68 | 5.0 | 8.0 | 0.22 | 0.70 | 0.70 | 95 | 1016.5 |
| 20260831185016 | 67 | 90 | 5.0 | 8.0 | 0.22 | 0.68 | 0.68 | 95 | 1017.2 |
| 20260831184018 | 68 | 113 | 7.0 | 11.0 | 0.20 | 0.65 | 0.65 | 95 | 1017.4 |
| 20260831183015 | 68 | 113 | 5.0 | 10.0 | 0.16 | 0.60 | 0.60 | 95 | 1017.8 |
| 20260831182017 | 68 | 90 | 5.0 | 8.0 | 0.12 | 0.55 | 0.55 | 95 | 1017.8 |
| 20260831181017 | 68 | 135 | 4.0 | 7.0 | 0.08 | 0.50 | 0.50 | 95 | 1017.9 |
| 20260831180016 | 69 | 135 | 4.0 | 6.0 | 0.06 | 0.48 | 0.48 | 94 | 1017.8 |
| 20260831175018 | 69 | 135 | 5.0 | 8.0 | 0.04 | 0.46 | 0.46 | 94 | 1017.8 |
| 20260831174015 | 69 | 135 | 5.0 | 8.0 | 0.05 | 0.45 | 0.45 | 94 | 1017.9 |
| 20260831173018 | 69 | 135 | 5.0 | 9.0 | 0.04 | 0.44 | 0.44 | 94 | 1017.8 |
| 20260831172017 | 71 | 113 | 6.0 | 10.0 | 0.03 | 0.43 | 0.43 | 94 | 1017.8 |
| 20260831171017 | 71 | 68 | 2.0 | 3.0 | 0.02 | 0.42 | 0.42 | 94 | 1017.9 |
| 20260831170017 | 71 | 0.0 | 3.0 | 0.02 | 0.42 | 0.42 | 94 | 1017.7 | |
| 20260831165017 | 71 | 68 | 2.0 | 4.0 | 0.02 | 0.42 | 0.42 | 94 | 1017.5 |
| 20260831164015 | 71 | 45 | 2.0 | 5.0 | 0.00 | 0.40 | 0.40 | 94 | 1017.2 |
| 20260831163017 | 71 | 158 | 1.0 | 3.0 | 0.00 | 0.40 | 0.40 | 94 | 1016.9 |
| 20260831162018 | 71 | 0.0 | 0.0 | 0.00 | 0.40 | 0.40 | 94 | 1016.4 | |
| 20260831161015 | 71 | 0.0 | 2.0 | 0.00 | 0.40 | 0.40 | 94 | 1016.1 | |
| 20260831160016 | 71 | 135 | 1.0 | 3.0 | 0.00 | 0.40 | 0.40 | 94 | 1016.2 |
| 20260831155036 | 70 | 135 | 1.0 | 3.0 | 0.00 | 0.40 | 0.40 | 94 | 1015.8 |
| 20260831154015 | 71 | 0.0 | 3.0 | 0.00 | 0.40 | 0.40 | 94 | 1016.0 | |
| 20260831153018 | 70 | 90 | 1.0 | 5.0 | 0.00 | 0.40 | 0.40 | 94 | 1016.0 |
| 20260831152017 | 70 | 203 | 5.0 | 11.0 | 0.00 | 0.40 | 0.40 | 94 | 1016.1 |
| 20260831151015 | 69 | 45 | 8.0 | 15.0 | 0.00 | 0.40 | 0.40 | 94 | 1015.2 |
| 20260831150017 | 69 | 23 | 5.0 | 8.0 | 0.01 | 0.40 | 0.40 | 94 | 1015.4 |
| 20260831145019 | 69 | 45 | 7.0 | 12.0 | 0.02 | 0.40 | 0.40 | 94 | 1015.1 |
| 20260831144016 | 69 | 68 | 8.0 | 14.0 | 0.04 | 0.40 | 0.40 | 94 | 1014.8 |
| 20260831143036 | 69 | 68 | 9.0 | 14.0 | 0.07 | 0.40 | 0.40 | 94 | 1014.4 |
| 20260831142015 | 69 | 68 | 7.0 | 13.0 | 0.10 | 0.40 | 0.40 | 94 | 1014.6 |
| 20260831141017 | 68 | 68 | 7.0 | 12.0 | 0.13 | 0.40 | 0.40 | 94 | 1014.6 |
| 20260831140036 | 68 | 90 | 7.0 | 10.0 | 0.15 | 0.39 | 0.39 | 94 | 1014.9 |
| 20260831135016 | 69 | 90 | 9.0 | 14.0 | 0.18 | 0.38 | 0.38 | 94 | 1015.1 |
| 20260831134017 | 69 | 113 | 10.0 | 16.0 | 0.19 | 0.36 | 0.36 | 94 | 1015.3 |
| 20260831133017 | 69 | 113 | 11.0 | 17.0 | 0.18 | 0.33 | 0.33 | 94 | 1015.3 |
| 20260831132020 | 69 | 113 | 12.0 | 18.0 | 0.16 | 0.30 | 0.30 | 94 | 1015.1 |
| 20260831131039 | 69 | 113 | 12.0 | 17.0 | 0.14 | 0.27 | 0.27 | 94 | 1014.8 |
| 20260831130016 | 69 | 113 | 11.0 | 17.0 | 0.12 | 0.24 | 0.24 | 94 | 1014.9 |
| 20260831125015 | 69 | 135 | 7.0 | 13.0 | 0.08 | 0.20 | 0.20 | 94 | 1015.0 |
| 20260831124017 | 69 | 135 | 8.0 | 15.0 | 0.05 | 0.17 | 0.17 | 94 | 1014.9 |
| 20260831123037 | 69 | 135 | 8.0 | 15.0 | 0.03 | 0.15 | 0.15 | 93 | 1014.8 |
| 20260831122015 | 69 | 135 | 7.0 | 14.0 | 0.02 | 0.14 | 0.14 | 93 | 1014.7 |
| 20260831121017 | 70 | 135 | 7.0 | 13.0 | 0.01 | 0.13 | 0.13 | 93 | 1014.8 |
| 20260831120015 | 70 | 135 | 8.0 | 15.0 | 0.01 | 0.12 | 0.12 | 93 | 1014.7 |
| 20260831115038 | 71 | 158 | 8.0 | 17.0 | 0.02 | 0.12 | 0.12 | 93 | 1014.6 |
| 20260831114017 | 71 | 135 | 3.0 | 7.0 | 0.03 | 0.12 | 0.12 | 93 | 1014.2 |
| 20260831113015 | 70 | 113 | 6.0 | 10.0 | 0.07 | 0.12 | 0.12 | 93 | 1013.3 |
| 20260831112017 | 70 | 113 | 6.0 | 10.0 | 0.08 | 0.12 | 0.12 | 93 | 1012.9 |
| 20260831111015 | 71 | 113 | 6.0 | 10.0 | 0.12 | 0.12 | 0.12 | 93 | 1012.9 |
| 20260831110035 | 72 | 135 | 4.0 | 10.0 | 0.11 | 0.11 | 0.11 | 92 | 1012.7 |
| 20260831105038 | 72 | 68 | 4.0 | 7.0 | 0.10 | 0.10 | 0.10 | 92 | 1012.2 |
| 20260831104035 | 72 | 68 | 4.0 | 7.0 | 0.09 | 0.09 | 0.09 | 91 | 1011.9 |
| 20260831103017 | 72 | 68 | 5.0 | 8.0 | 0.05 | 0.05 | 0.05 | 89 | 1012.3 |
| 20260831102015 | 78 | 113 | 4.0 | 7.0 | 0.04 | 0.04 | 0.04 | 71 | 1013.5 |
| 20260831101019 | 80 | 203 | 1.0 | 3.0 | 0.00 | 0.00 | 0.00 | 58 | 1014.0 |
| 20260831100017 | 80 | 338 | 1.0 | 4.0 | 0.00 | 0.00 | 0.00 | 59 | 1013.2 |
| 20260831095039 | 81 | 293 | 2.0 | 5.0 | 0.00 | 0.00 | 0.00 | 57 | 1013.2 |
| 20260831094020 | 81 | 338 | 2.0 | 5.0 | 0.00 | 0.00 | 0.00 | 56 | 1013.3 |
| 20260831093017 | 81 | 23 | 5.0 | 11.0 | 0.00 | 0.00 | 0.00 | 56 | 1013.0 |
| 20260831092020 | 81 | 23 | 4.0 | 8.0 | 0.00 | 0.00 | 0.00 | 56 | 1012.9 |
| 20260831091038 | 81 | 338 | 4.0 | 7.0 | 0.00 | 0.00 | 0.00 | 57 | 1013.0 |
| 20260831090017 | 81 | 338 | 3.0 | 8.0 | 0.00 | 0.00 | 0.00 | 58 | 1012.8 |
| 20260831085039 | 81 | 315 | 5.0 | 12.0 | 0.00 | 0.00 | 0.00 | 58 | 1012.9 |
| 20260831084017 | 82 | 338 | 5.0 | 11.0 | 0.00 | 0.00 | 0.00 | 57 | 1013.0 |
| 20260831083019 | 82 | 293 | 4.0 | 11.0 | 0.00 | 0.00 | 0.00 | 56 | 1013.3 |
| 20260831082037 | 82 | 293 | 6.0 | 11.0 | 0.00 | 0.00 | 0.00 | 54 | 1013.6 |
| 20260831081017 | 82 | 270 | 4.0 | 8.0 | 0.00 | 0.00 | 0.00 | 54 | 1013.4 |
| 20260831080017 | 82 | 270 | 3.0 | 6.0 | 0.00 | 0.00 | 0.00 | 54 | 1013.2 |
| 20260831075019 | 82 | 0.0 | 0.0 | 0.00 | 0.00 | 0.00 | 55 | 1012.6 | |
| 20260831074019 | 82 | 135 | 1.0 | 4.0 | 0.00 | 0.00 | 0.00 | 55 | 1012.5 |
| 20260831073015 | 83 | 0.0 | 0.0 | 0.00 | 0.00 | 0.00 | 54 | 1012.6 | |
| 20260831072037 | 83 | 0.0 | 4.0 | 0.00 | 0.00 | 0.00 | 53 | 1012.8 | |
| 20260831071040 | 83 | 113 | 1.0 | 4.0 | 0.00 | 0.00 | 0.00 | 53 | 1012.7 |
| 20260831070037 | 83 | 113 | 3.0 | 5.0 | 0.00 | 0.00 | 0.00 | 53 | 1012.9 |
| 20260831065038 | 83 | 113 | 2.0 | 6.0 | 0.00 | 0.00 | 0.00 | 53 | 1012.8 |
| 20260831064036 | 83 | 113 | 3.0 | 5.0 | 0.00 | 0.00 | 0.00 | 52 | 1012.6 |
| 20260831063018 | 83 | 113 | 2.0 | 5.0 | 0.00 | 0.00 | 0.00 | 53 | 1012.6 |
| 20260831062016 | 83 | 0.0 | 1.0 | 0.00 | 0.00 | 0.00 | 53 | 1012.5 | |
| 20260831061038 | 82 | 0.0 | 0.0 | 0.00 | 0.00 | 0.00 | 53 | 1012.6 | |
| 20260831060020 | 83 | 0.0 | 0.0 | 0.00 | 0.00 | 0.00 | 53 | 1012.6 | |
| 20260831055036 | 83 | 0.0 | 1.0 | 0.00 | 0.00 | 0.00 | 52 | 1012.7 | |
| 20260831054016 | 83 | 0.0 | 1.0 | 0.00 | 0.00 | 0.00 | 52 | 1012.6 | |
| 20260831053016 | 83 | 293 | 2.0 | 8.0 | 0.00 | 0.02 | 0.00 | 52 | 1013.0 |
| 20260831052019 | 84 | 248 | 2.0 | 5.0 | 0.00 | 0.02 | 0.00 | 53 | 1013.0 |
| 20260831051016 | 84 | 248 | 2.0 | 7.0 | 0.00 | 0.02 | 0.00 | 53 | 1012.6 |
| 20260831050017 | 84 | 248 | 8.0 | 13.0 | 0.00 | 0.03 | 0.00 | 53 | 1012.6 |
| 20260831045016 | 84 | 270 | 12.0 | 16.0 | 0.00 | 0.04 | 0.00 | 53 | 1012.4 |
| 20260831044018 | 84 | 248 | 13.0 | 18.0 | 0.00 | 0.05 | 0.00 | 53 | 1012.5 |
| 20260831043018 | 85 | 270 | 11.0 | 18.0 | 0.00 | 0.05 | 0.00 | 51 | 1012.5 |
| 20260831042016 | 85 | 270 | 9.0 | 16.0 | 0.00 | 0.05 | 0.00 | 51 | 1012.3 |
| 20260831040018 | 89 | 248 | 14.0 | 24.0 | 0.00 | 0.07 | 0.00 | 43 | 1011.8 |
| 20260831035020 | 89 | 248 | 10.0 | 16.0 | 0.00 | 0.10 | 0.00 | 42 | 1011.4 |
| 20260831034018 | 90 | 248 | 15.0 | 22.0 | 0.00 | 0.10 | 0.00 | 41 | 1011.2 |
| 20260831033016 | 91 | 248 | 11.0 | 16.0 | 0.00 | 0.10 | 0.00 | 40 | 1010.9 |
| 20260831032017 | 92 | 225 | 10.0 | 17.0 | 0.00 | 0.10 | 0.00 | 40 | 1010.8 |
| 20260831031016 | 92 | 225 | 7.0 | 14.0 | 0.00 | 0.10 | 0.00 | 39 | 1010.5 |
| 20260831030018 | 94 | 225 | 4.0 | 9.0 | 0.00 | 0.10 | 0.00 | 37 | 1010.5 |
| 20260831025016 | 94 | 0.0 | 0.0 | 0.00 | 0.10 | 0.00 | 38 | 1010.1 |